Temp
22 22 21 21 21 21 21 21 21 21 21 22 22 22 22 22 21 21 21 21 20 20 20 20 21 21 21 21 21 21 21 21 21 21 21 21 21 21 22 22 23 22 20
24 23 21 21 21 21 21 21 21 22 21 21 21 21 21 21 21 21 21 21 20 20 20 20 21 21 20 21 21 21 22 21 21 21 21 21 21 21 21 21 22 21 20
24 23 22 21 21 21 22 22 21 21 21 21 22 21 21 21 21 21 21 21 21 21 20 20 21 20 20 21 21 21 21 21 21 22 22 24 22 21 20 20 20 20 20
25 25 23 21 21 21 22 22 22 21 21 21 21 21 21 21 21 21 21 21 21 21 21 21 21 21 21 20 20 20 20 21 22 22 23 23 23 20 20 20 20 20 20
26 26 22 21 21 21 21 21 21 21 21 21 21 21 21 21 21 21 21 21 21 21 21 20 20 21 21 21 20 20 21 21 22 23 23 22 22 20 20 21 20 20 21
26 26 21 22 21 21 21 21 21 21 21 21 21 21 21 21 21 21 21 21 21 21 21 21 21 21 20 20 20 20 21 22 22 23 23 22 23 20 20 21 21 20 20
26 25 23 22 21 21 21 21 21 21 21 21 21 22 21 21 21 21 21 21 21 21 21 21 21 21 21 21 21 20 21 22 23 23 23 23 22 20 20 20 20 20 20
27 25 23 21 21 21 21 21 21 21 21 21 21 21 21 21 21 21 21 21 21 21 21 21 21 22 21 21 21 21 21 22 24 24 23 23 20 20 20 20 20 19 19
27 26 24 23 21 21 21 21 21 21 21 21 21 21 21 21 21 21 21 21 21 21 21 21 22 22 22 22 21 22 22 22 24 24 25 23 20 20 20 20 20 20 20
27 26 25 24 24 24 22 21 21 21 21 21 21 21 21 21 22 22 23 22 21 21 21 22 22 22 22 22 22 22 22 23 24 24 24 22 20 20 20 20 20 19 20
26 26 26 25 24 24 23 22 21 21 21 21 22 22 23 25 24 24 23 21 21 21 21 22 22 22 23 22 22 23 24 25 25 25 24 21 20 20 20 20 20 20 19
26 26 26 25 25 24 25 22 23 23 24 25 24 23 24 24 24 24 23 22 22 22 22 22 23 23 24 25 23 24 26 24 25 25 23 21 20 20 20 20 20 20 20
26 26 26 25 24 24 25 24 24 25 24 24 23 23 23 24 24 25 24 24 24 23 25 24 23 25 26 26 26 26 25 25 25 25 22 20 20 20 20 20 20 20 19
26 26 25 24 24 24 24 25 25 25 25 24 24 22 23 25 24 25 25 25 25 25 24 25 26 25 25 25 26 25 25 26 26 25 22 21 20 20 20 20 20 20 20
26 26 25 24 23 24 24 25 25 25 25 25 23 23 24 25 25 25 24 25 25 25 25 25 25 25 24 25 25 25 25 25 25 25 24 21 20 20 20 20 19 19 19
26 26 25 24 23 23 24 24 24 25 25 25 25 24 23 25 24 25 23 25 25 25 25 26 25 26 26 26 25 25 25 25 24 24 25 22 21 20 20 20 20 20 20
26 26 25 24 23 23 23 23 24 24 25 25 25 23 23 23 23 24 25 24 25 24 24 24 25 25 26 26 25 25 25 24 24 24 24 23 22 21 21 20 20 20 20
26 25 25 25 24 23 23 23 24 25 25 25 25 24 23 23 23 23 24 25 25 25 26 26 26 27 27 27 26 26 25 25 24 24 24 24 24 23 22 21 20 20 20
26 25 25 25 25 24 23 23 24 24 25 25 25 25 23 23 23 24 25 24 24 25 26 26 26 27 27 27 26 26 25 25 25 25 24 24 24 24 24 22 21 21 21
26 25 25 25 25 24 23 23 24 25 25 25 25 25 24 24 23 24 24 23 24 26 26 27 26 26 27 27 28 26 26 26 25 26 25 25 24 24 25 23 23 22 22
26 25 24 24 24 23 24 24 25 25 25 25 26 25 24 24 23 23 24 23 24 25 26 25 25 24 26 26 27 27 25 25 26 26 26 26 25 25 24 24 24 24 23
26 25 24 24 24 23 24 25 26 26 26 26 26 25 25 24 24 24 24 24 24 25 24 24 25 26 26 26 27 28 29 27 27 27 26 26 26 26 25 24 24 23 23
27 26 25 24 24 23 25 24 24 25 25 25 26 26 25 25 24 24 24 24 24 25 25 24 24 26 27 26 25 28 29 30 29 27 26 27 26 26 26 25 24 24 23
27 26 25 24 24 23 23 25 24 26 27 27 27 27 26 25 25 24 24 24 24 24 24 25 25 26 26 27 26 26 26 26 28 29 28 27 26 26 26 26 26 25 24
28 27 25 24 24 24 23 25 24 25 27 27 27 26 26 25 25 25 24 24 24 23 24 24 24 24 26 27 27 27 26 27 27 29 30 29 27 27 27 26 27 26 25
28 27 26 25 23 23 23 23 24 25 27 27 26 26 27 27 25 24 24 24 24 24 24 24 24 24 25 25 27 27 28 28 29 29 29 29 29 28 28 27 27 26 26
Height
824 826 827 828 830 832 834 835 837 837 838 839 841 843 844 845 846 847 847 847 848 847 848 849 850 850 850 850 851 852 853 854 854 854 855 855 855 855 855 856 856 858 858
823 826 828 830 832 834 836 837 839 839 841 842 843 845 846 847 848 849 849 849 849 849 849 851 852 852 852 853 853 854 854 856 855 857 856 857 858 858 858 859 859 860 860
823 828 830 832 834 836 838 840 841 842 843 844 846 847 848 849 850 850 850 850 851 851 852 853 853 854 853 854 855 856 857 857 858 858 857 858 861 861 861 863 862 862 863
824 828 832 834 836 838 840 841 843 844 845 846 848 849 850 851 851 852 852 852 853 854 854 855 856 856 856 857 858 858 859 859 859 859 860 861 862 863 864 865 865 865 865
826 829 834 837 838 840 842 844 844 845 846 848 849 850 851 852 853 854 854 855 855 856 857 857 858 859 859 860 861 860 861 861 861 861 863 863 865 866 867 867 867 868 868
827 831 836 839 841 842 844 845 846 848 848 850 851 852 853 855 856 856 856 857 858 858 859 860 861 861 862 862 863 863 862 863 863 864 865 866 866 868 868 868 869 870 871
827 834 838 841 842 844 846 847 848 850 851 852 853 855 856 857 858 858 858 859 859 859 860 861 862 862 862 863 864 864 864 865 866 866 867 867 870 870 871 871 872 873 873
829 835 839 842 844 846 848 849 850 852 853 854 856 858 859 860 860 860 860 861 861 861 861 862 863 864 864 865 866 866 866 868 868 868 869 870 872 872 873 874 875 875 876
830 835 840 844 846 848 850 851 852 854 855 857 859 861 860 862 862 862 862 862 863 863 863 864 865 866 867 868 868 867 869 868 869 870 870 873 873 874 875 875 877 877 878
831 836 840 845 848 850 852 853 854 855 857 859 860 862 863 863 864 864 864 864 865 865 866 866 867 868 869 869 870 869 870 869 871 872 873 875 875 877 877 878 879 879 880
832 837 840 844 848 851 853 855 856 857 859 861 862 863 864 865 866 866 866 867 867 867 867 868 868 870 870 871 871 870 869 872 872 873 876 878 879 879 879 880 881 881 882
832 836 839 844 848 851 853 857 858 860 861 862 864 866 866 867 867 868 868 869 868 868 869 869 870 871 869 871 873 870 872 875 875 875 878 880 881 881 881 882 883 883 884
831 836 840 845 849 852 853 856 858 859 861 863 866 867 867 868 868 868 869 869 870 870 870 871 871 869 871 870 872 872 875 875 877 876 879 881 882 883 883 884 885 885 885
831 836 841 846 850 852 855 856 857 859 861 863 866 867 868 868 869 870 869 870 871 871 872 872 871 873 874 874 873 875 876 875 877 878 881 882 883 885 885 886 886 887 887
831 836 841 846 850 853 855 856 858 860 861 863 866 868 869 868 869 870 871 871 871 872 872 873 873 874 875 876 876 877 877 879 879 879 881 883 884 886 887 887 887 888 888
830 835 840 845 850 853 856 857 859 860 862 864 866 868 869 869 870 870 872 872 872 873 873 874 874 874 875 875 877 878 878 880 881 881 882 884 886 887 888 889 889 889 889
829 835 839 844 849 853 855 858 859 860 862 864 866 867 869 869 870 871 872 873 873 874 875 875 876 876 875 875 879 879 880 881 882 883 883 884 886 886 888 889 889 889 890
829 834 838 842 847 851 855 857 858 860 862 864 865 867 868 869 872 872 872 873 874 875 875 875 875 875 875 876 878 879 881 882 884 885 885 885 886 886 887 888 889 890 890
827 833 837 841 845 850 853 856 858 859 861 863 865 866 868 869 872 873 873 874 875 876 875 875 876 875 877 876 879 881 882 883 884 884 886 887 887 886 886 887 888 888 888
826 832 836 840 844 848 852 855 857 858 860 862 864 866 868 869 870 872 874 876 876 875 876 875 878 878 876 877 877 881 882 884 885 885 885 885 887 887 886 888 887 886 887
823 829 834 838 842 846 849 851 853 856 858 861 862 865 867 868 871 872 873 875 876 876 876 879 879 880 880 882 881 882 884 884 884 884 884 884 886 886 887 887 887 887 886
818 824 830 835 840 843 846 849 851 854 856 859 861 863 866 867 869 871 872 874 876 876 878 879 880 879 880 882 878 877 876 880 880 881 883 884 885 885 885 887 887 887 887
811 818 825 830 836 840 844 847 850 853 855 858 859 861 863 866 867 869 872 873 875 876 877 879 880 879 877 882 882 878 876 870 876 880 882 882 884 883 884 886 886 887 887
804 813 820 825 830 835 840 843 846 848 850 853 856 858 861 864 866 868 869 872 874 875 876 877 878 877 877 877 881 881 881 880 874 873 878 880 882 882 882 883 883 884 885
799 806 813 820 825 830 834 838 842 845 847 850 853 856 859 862 864 866 868 870 873 874 875 876 878 877 878 876 877 879 881 880 881 874 870 874 878 878 879 880 881 882 883
792 799 806 813 818 824 829 833 837 841 844 846 850 853 856 858 862 864 866 868 870 872 873 875 876 877 877 878 878 878 877 876 874 876 874 875 875 876 877 878 879 880 880
Wind_Speed
17 18 17 17 18 16 13 12 11 11 12 13 12 11 11 10 10 10 10 12 11 11 12 11 10 10 11 11 11 10 11 12 14 15 14 15 15 17 17 14 16 15 16
23 19 19 18 17 15 13 13 12 12 13 14 14 11 10 9 9 9 11 11 11 12 12 11 11 10 10 11 11 11 11 12 13 14 15 15 14 14 14 14 17 15 16
24 19 18 18 18 17 15 14 12 13 13 13 12 10 10 10 9 9 10 11 11 12 10 11 10 9 13 12 11 11 11 12 12 12 11 13 12 14 14 15 16 16 16
24 20 19 17 18 17 16 15 14 13 12 12 12 11 10 11 9 10 10 10 11 11 11 12 11 11 12 12 12 12 11 10 12 10 12 14 13 13 14 16 15 15 16
23 21 19 18 18 17 16 15 14 13 13 13 13 11 11 11 11 11 10 10 10 12 11 11 11 11 12 13 12 11 11 13 13 9 11 12 14 13 15 15 15 13 15
23 21 18 20 16 17 16 15 14 13 13 13 13 11 12 11 11 10 10 10 10 10 11 10 11 11 10 10 11 11 10 14 10 11 11 11 13 12 13 13 15 14 14
24 22 18 19 17 16 16 15 14 13 13 14 13 13 13 13 11 11 11 10 9 10 10 10 10 12 11 10 10 11 11 12 11 11 11 13 12 14 13 13 13 14 14
23 22 19 16 16 16 16 15 15 13 14 15 15 13 14 14 13 12 11 11 10 10 11 10 11 12 12 12 13 11 13 10 10 10 13 12 11 13 13 13 13 13 13
23 22 19 16 14 14 15 14 15 14 15 16 15 14 14 15 13 12 11 10 10 10 10 10 11 11 12 11 12 11 14 11 10 9 10 10 11 11 12 12 12 12 11
22 21 20 17 15 14 14 13 15 14 15 15 15 13 14 15 13 14 13 11 9 10 10 10 10 10 12 13 11 12 15 12 10 9 10 9 10 11 11 10 10 10 11
21 21 19 18 16 14 14 11 12 13 14 14 13 14 12 12 12 12 12 10 9 9 9 10 9 11 13 12 12 11 10 8 8 8 11 10 9 10 9 9 8 9 9
23 22 20 18 16 15 15 13 12 12 13 12 11 10 10 11 9 10 8 8 9 9 9 9 9 11 9 11 7 7 8 8 8 8 9 9 7 8 8 7 7 7 7
24 22 19 18 16 15 14 14 13 12 12 11 10 9 9 10 9 7 7 7 7 7 7 8 7 6 6 7 6 8 7 6 8 8 7 7 8 7 7 7 7 7 6
25 22 20 18 16 14 14 14 13 12 12 11 10 9 8 8 8 6 5 5 6 6 6 6 6 6 5 4 7 7 7 6 7 6 6 6 8 5 5 5 6 6 5
25 23 21 19 17 15 14 13 13 11 12 10 10 8 7 6 6 7 5 4 4 5 6 6 7 6 5 5 5 5 6 7 6 5 7 5 6 4 4 5 3 4 3
25 24 22 19 17 16 14 13 12 11 10 10 9 8 6 6 6 6 5 5 5 5 6 5 5 6 6 6 5 5 5 7 6 4 6 4 4 3 2 2 1 1 1
25 24 23 20 18 16 14 14 12 11 11 10 9 7 6 5 5 5 5 4 5 4 5 5 5 5 8 7 6 6 6 7 8 5 5 5 3 2 1 1 0 0 1
24 24 23 21 20 17 15 14 13 12 11 9 9 8 7 6 5 4 4 6 6 5 5 6 7 7 7 5 7 6 6 6 7 5 4 2 3 3 1 1 2 2 2
24 24 24 22 21 19 15 13 12 12 10 10 9 8 7 5 6 6 5 5 6 6 6 9 7 6 7 7 8 7 6 6 4 7 4 3 2 2 2 2 1 1 2
25 23 23 22 21 19 16 14 13 13 11 10 9 7 6 6 6 6 6 6 5 7 7 6 6 3 5 5 9 7 5 4 4 4 4 4 3 2 2 1 2 4 3
26 25 24 24 22 21 19 19 17 15 13 11 9 9 8 7 6 6 5 7 6 6 4 6 6 5 6 6 7 6 2 2 3 1 2 2 4 2 2 0 1 1 1
29 28 26 25 23 22 21 19 17 16 13 11 10 10 10 9 8 7 6 8 8 7 6 6 6 7 6 8 4 4 5 8 4 3 2 1 0 1 1 1 0 1 1
31 31 29 28 26 24 21 19 15 14 10 11 11 11 11 11 10 8 7 5 8 7 9 9 8 7 10 7 5 6 2 1 2 4 5 3 2 3 1 1 1 2 1
34 31 30 29 28 26 24 23 22 21 18 16 14 12 11 12 12 10 9 8 7 5 4 7 6 7 6 9 6 7 4 6 3 3 5 4 4 5 4 4 3 4 4
34 34 32 30 28 28 28 25 25 22 19 16 15 12 11 11 12 12 10 7 6 6 7 5 5 6 7 5 7 6 4 3 2 7 2 5 4 5 6 6 5 4 5
34 34 34 33 31 30 30 29 26 24 21 19 18 16 15 14 13 13 12 10 8 7 7 8 7 6 7 6 6 5 6 4 4 4 3 3 3 1 3 6 7 7 7
Wind_Direction
151 147 141 137 140 138 140 141 137 128 131 150 155 138 124 120 111 109 100 90 84 75 82 89 97 103 109 109 107 111 112 109 108 105 101 101 101 98 94 94 97 93 95
143 144 141 142 145 141 143 142 143 137 133 135 140 134 127 118 112 105 99 90 88 78 82 90 96 102 112 114 110 108 112 109 111 109 105 102 101 103 97 96 95 99 98
141 143 140 142 140 140 143 138 138 137 138 140 141 135 123 117 109 101 96 91 85 81 85 94 93 94 106 108 108 105 103 108 112 111 109 104 100 101 99 95 97 101 97
143 143 143 142 136 135 137 139 136 134 133 133 129 128 127 121 113 100 91 93 90 88 86 89 93 91 96 98 100 97 99 107 115 105 108 103 104 103 99 99 96 100 99
145 141 145 144 137 135 134 132 132 130 131 125 124 130 126 121 106 106 100 100 101 94 92 95 98 98 102 100 100 95 105 106 105 95 110 107 103 99 97 92 93 94 102
144 141 146 145 135 135 133 126 125 126 120 123 127 126 125 117 110 111 103 99 99 102 100 102 100 96 99 109 108 98 108 101 98 100 101 87 92 103 100 101 103 96 96
145 142 142 144 138 133 131 133 125 123 123 125 121 119 116 117 116 108 103 101 101 105 107 106 97 93 90 101 116 114 107 94 98 94 94 94 99 103 100 98 99 97 97
143 144 142 145 138 136 136 129 128 123 123 120 119 122 119 113 107 104 99 97 99 108 114 110 100 99 91 94 102 108 104 105 97 94 86 92 105 100 101 100 98 95 90
148 143 145 146 139 135 137 132 128 125 126 121 124 123 117 109 107 105 100 93 96 109 116 110 106 99 94 96 96 100 108 109 98 99 102 99 106 103 105 101 100 97 100
152 148 149 151 143 143 142 136 132 129 128 127 125 125 117 110 107 103 93 93 96 104 114 113 101 102 100 101 92 97 100 94 100 105 94 108 107 104 103 102 98 102 95
158 155 152 154 153 149 148 148 135 133 131 134 131 128 117 117 112 105 113 96 103 106 116 118 111 108 109 103 93 91 88 92 98 98 96 99 93 102 103 100 102 101 95
163 161 158 154 156 155 152 149 148 149 145 144 138 134 132 126 121 118 113 116 117 113 115 125 121 118 149 111 94 76 87 91 90 90 100 111 105 99 100 98 101 99 94
166 162 163 160 160 160 152 157 158 160 158 161 154 147 142 136 134 128 116 118 114 113 128 120 131 153 101 101 91 78 86 95 96 94 105 93 98 98 99 100 110 97 101
168 166 168 166 165 166 164 166 165 164 166 167 163 156 152 148 146 141 127 119 125 113 121 127 117 108 120 96 93 82 81 90 97 102 110 106 106 97 97 106 99 105 94
172 171 171 170 171 171 172 171 169 167 167 164 164 169 163 159 146 150 142 134 124 125 133 118 109 108 128 122 109 94 77 81 95 104 111 115 109 129 111 107 102 109 113
175 174 173 176 178 177 177 175 172 173 169 169 168 174 172 168 161 149 150 159 141 130 145 134 115 108 110 119 120 102 88 85 91 110 105 115 128 103 127 139 123 119 100
179 176 178 180 182 182 183 179 180 178 171 166 164 163 177 183 173 154 147 158 155 153 151 150 133 115 121 112 108 112 107 89 93 90 97 119 179 109 69 117 198 301 230
181 181 182 183 184 184 186 184 181 177 172 167 166 165 168 181 166 138 148 154 149 153 146 150 154 139 129 115 111 114 109 96 94 92 82 72 79 132 166 290 233 275 285
184 184 187 186 185 186 187 186 183 180 179 172 170 171 172 183 150 162 156 144 160 143 134 141 143 148 127 115 134 122 111 103 99 90 76 83 81 33 82 12 6 220 263
187 188 191 190 188 188 189 190 191 188 187 182 182 184 187 198 159 165 163 160 173 163 149 147 132 128 112 140 122 109 113 111 103 94 86 101 91 82 64 30 302 184 350
191 192 194 194 192 189 192 192 190 193 192 195 197 199 200 198 184 171 162 165 174 180 148 163 163 162 144 148 153 143 153 199 180 154 114 90 91 94 46 129 255 294 222
193 196 196 198 196 196 196 197 196 197 197 202 198 193 187 190 192 189 172 167 172 162 175 172 184 159 158 172 243 179 181 167 195 215 169 192 57 29 72 73 290 262 328
196 198 198 199 198 200 200 195 194 196 199 199 197 196 194 191 190 191 194 164 182 195 185 192 202 199 172 187 228 297 190 25 153 156 195 224 204 233 239 230 234 225 228
199 198 201 201 199 200 199 198 198 198 199 201 198 195 192 195 195 198 204 183 189 198 207 199 202 206 224 183 195 231 311 345 308 146 178 216 231 236 224 243 222 221 228
200 201 201 202 203 201 199 203 202 211 208 203 203 193 196 196 201 204 208 205 190 203 218 204 198 205 199 232 214 185 201 213 284 315 88 141 205 236 239 237 251 251 235
201 202 201 201 203 203 202 203 205 207 214 208 206 203 207 207 207 210 210 210 202 198 206 208 209 207 217 211 209 209 217 225 185 233 250 202 351 210 256 249 245 246 243